Location: Blairvadach
(56.2780°N, 6.9720°W)
Time: 18:03:56
(UTC+00:00)

Envisat - Pass Details

Date: 20 February 2019
Orbit: 764 x 766 km, 98.2° (Epoch: 22 March)

Event Time Altitude Azimuth Distance (km) Brightness Sun altitude
Rises 20:34:36 0° 216° (SW) 3,227 6.5 -24.4°
Reaches altitude 10° 20:37:49 10° 238° (WSW) 2,306 5.9 -24.9°
Maximum altitude 20:40:53 16° 276° (W) 1,929 5.9 -25.3°
Drops below altitude 10° 20:43:59 10° 313° (NW) 2,316 6.3 -25.7°
Sets 20:47:14 0° 335° (NNW) 3,248 6.9 -26.1°
